Find Starlink 33944

NORAD ID: 64209 Int'l Des: 2025-117 Owner: SPXS Country: US Constellation: starlink operational
LEOCIRCULAR

現在のビュー

3D地球を読み込み中...

About Starlink 33944

Starlink 33944 (NORAD 64209) is a starlink constellation satellite (v2 mini) launched May 31, 2025 by SPXS of US. It operates in LEO, CIRCULAR orbit with a mass of 575.00 kg.

次回通過

Passes for default location (London). Set your location on the main map for personalized predictions.

高度履歴

Loading altitude history...

軌道要素

1 64209U 25117G 26264.26203945 .00016689 00000-0 50380-3 0 9997
2 64209 53.1577 210.1401 0001543 92.5264 267.5915 15.34410969 74515
Epoch: Sep 21, 2026 • Age: 10 hours

現在のステータス

高度 462.5 km
遠地点 / 近地点 N/A
速度 7.64 km/s
衛星直下点 9.82°N, 134.27°E
打ち上げ日 May 31, 2025
運用期間 1.3 years
タイプ internet

技術仕様

分類 Payload
質量 575.00 kg
乾燥質量 530.00 kg
長さ 0.30 m
スパン 29.00 m
形状 ? Box + pan
製造者 SPXS
バスタイプ Starlink V2MO
フェーズステータス In Orbit
所有者/国 SPXS/US

Most Searched